Time,TemperatureF,DewpointF,PressureIn,WindDirection,WindDirectionDegrees,WindSpeedMPH,WindSpeedGustMPH,Humidity,HourlyPrecipIn,Conditions,Clouds,dailyrainin,SoftwareType,DateUTC
2013-03-15 00:14:00,54.7,42.0,30.28,SSE,152,2.0,3.0,63,0.00,,,0.00,weatherlink.com 1.10,2013-03-15 05:14:00,
2013-03-15 00:29:00,53.7,42.0,30.29,SSE,155,1.0,3.0,66,0.00,,,0.00,weatherlink.com 1.10,2013-03-15 05:29:00,
2013-03-15 00:44:00,53.3,43.0,30.28,SSE,155,2.0,3.0,67,0.00,,,0.00,weatherlink.com 1.10,2013-03-15 05:44:00,
2013-03-15 00:59:00,53.0,43.0,30.28,SSE,155,2.0,3.0,70,0.00,,,0.00,weatherlink.com 1.10,2013-03-15 05:59:00,
2013-03-15 01:14:00,52.3,43.0,30.27,SSE,155,1.0,3.0,71,0.00,,,0.00,weatherlink.com 1.10,2013-03-15 06:14:00,
2013-03-15 01:29:00,51.9,43.0,30.27,SSE,155,1.0,3.0,73,0.00,,,0.00,weatherlink.com 1.10,2013-03-15 06:29:00,
2013-03-15 01:44:00,51.5,44.0,30.27,SSE,155,2.0,3.0,75,0.00,,,0.00,weatherlink.com 1.10,2013-03-15 06:44:00,
2013-03-15 01:59:00,51.2,44.0,30.27,SSE,155,1.0,3.0,76,0.00,,,0.00,weatherlink.com 1.10,2013-03-15 06:59:00,
2013-03-15 02:14:00,51.0,44.0,30.26,SSE,155,3.0,3.0,77,0.00,,,0.00,weatherlink.com 1.10,2013-03-15 07:14:00,
2013-03-15 02:29:00,50.6,44.0,30.26,SSE,155,2.0,3.0,79,0.00,,,0.00,weatherlink.com 1.10,2013-03-15 07:29:00,
2013-03-15 02:44:00,50.3,44.0,30.25,SSE,155,2.0,3.0,80,0.00,,,0.00,weatherlink.com 1.10,2013-03-15 07:44:00,
2013-03-15 02:59:00,50.1,45.0,30.25,SSE,155,2.0,3.0,81,0.00,,,0.00,weatherlink.com 1.10,2013-03-15 07:59:00,
2013-03-15 03:14:00,49.8,44.0,30.25,SSE,155,1.0,2.0,81,0.00,,,0.00,weatherlink.com 1.10,2013-03-15 08:14:00,
2013-03-15 03:29:00,49.5,45.0,30.24,SSE,155,2.0,2.0,83,0.00,,,0.00,weatherlink.com 1.10,2013-03-15 08:29:00,
2013-03-15 03:44:00,49.3,44.0,30.24,SSE,155,2.0,3.0,83,0.00,,,0.00,weatherlink.com 1.10,2013-03-15 08:44:00,
2013-03-15 03:59:00,49.0,44.0,30.23,SSE,155,2.0,3.0,84,0.00,,,0.00,weatherlink.com 1.10,2013-03-15 08:59:00,
2013-03-15 04:14:00,48.5,45.0,30.23,SSE,155,2.0,3.0,86,0.00,,,0.00,weatherlink.com 1.10,2013-03-15 09:14:00,
2013-03-15 04:29:00,48.4,44.0,30.23,SSE,155,1.0,3.0,86,0.00,,,0.00,weatherlink.com 1.10,2013-03-15 09:29:00,
2013-03-15 04:44:00,48.0,44.0,30.22,SSE,155,2.0,2.0,87,0.00,,,0.00,weatherlink.com 1.10,2013-03-15 09:44:00,
2013-03-15 04:59:00,47.9,45.0,30.22,SSE,155,1.0,2.0,88,0.00,,,0.00,weatherlink.com 1.10,2013-03-15 09:59:00,
2013-03-15 05:29:00,47.4,44.0,30.23,SSE,155,0.0,0.0,89,0.00,,,0.00,weatherlink.com 1.10,2013-03-15 10:29:00,
2013-03-15 05:44:00,47.2,45.0,30.23,SSE,155,0.0,0.0,90,0.00,,,0.00,weatherlink.com 1.10,2013-03-15 10:44:00,
2013-03-15 05:59:00,46.7,44.0,30.23,SSE,155,0.0,0.0,89,0.00,,,0.00,weatherlink.com 1.10,2013-03-15 10:59:00,
2013-03-15 06:14:00,46.1,43.0,30.23,SSE,155,0.0,0.0,89,0.00,,,0.00,weatherlink.com 1.10,2013-03-15 11:14:00,
2013-03-15 06:29:00,45.4,43.0,30.23,SSE,155,0.0,0.0,91,0.00,,,0.00,weatherlink.com 1.10,2013-03-15 11:29:00,
2013-03-15 06:44:00,45.3,43.0,30.24,SSE,155,0.0,0.0,92,0.00,,,0.00,weatherlink.com 1.10,2013-03-15 11:44:00,
2013-03-15 06:59:00,44.6,42.0,30.24,SSE,155,0.0,1.0,91,0.00,,,0.00,weatherlink.com 1.10,2013-03-15 11:59:00,
2013-03-15 07:15:00,43.8,41.0,30.24,SSE,155,1.0,2.0,91,0.00,,,0.00,weatherlink.com 1.10,2013-03-15 12:15:00,
2013-03-15 07:30:00,44.1,42.0,30.24,SSE,155,2.0,2.0,93,0.00,,,0.00,weatherlink.com 1.10,2013-03-15 12:30:00,
2013-03-15 07:45:00,45.0,43.0,30.23,SSE,155,2.0,3.0,93,0.00,,,0.00,weatherlink.com 1.10,2013-03-15 12:45:00,
2013-03-15 08:00:00,45.5,44.0,30.24,SSE,155,0.0,0.0,94,0.00,,,0.00,weatherlink.com 1.10,2013-03-15 13:00:00,
2013-03-15 08:15:00,46.2,45.0,30.24,SSE,155,0.0,0.0,94,0.00,,,0.00,weatherlink.com 1.10,2013-03-15 13:15:00,
2013-03-15 08:30:00,46.9,45.0,30.25,SSE,155,0.0,0.0,94,0.00,,,0.00,weatherlink.com 1.10,2013-03-15 13:30:00,
2013-03-15 08:45:00,48.3,47.0,30.25,SSE,155,2.0,2.0,94,0.00,,,0.00,weatherlink.com 1.10,2013-03-15 13:45:00,
2013-03-15 09:00:00,49.9,48.0,30.25,SSE,155,1.0,3.0,94,0.00,,,0.00,weatherlink.com 1.10,2013-03-15 14:00:00,
2013-03-15 09:15:00,52.4,51.0,30.25,SSE,155,1.0,3.0,93,0.00,,,0.00,weatherlink.com 1.10,2013-03-15 14:15:00,
2013-03-15 09:30:00,56.2,51.0,30.25,SSE,161,3.0,5.0,83,0.00,,,0.00,weatherlink.com 1.10,2013-03-15 14:30:00,
2013-03-15 09:45:00,59.7,52.0,30.25,South,183,3.0,7.0,77,0.00,,,0.00,weatherlink.com 1.10,2013-03-15 14:45:00,
2013-03-15 10:00:00,62.2,53.0,30.25,South,173,4.0,8.0,72,0.00,,,0.00,weatherlink.com 1.10,2013-03-15 15:00:00,
2013-03-15 10:15:00,64.6,54.0,30.25,South,180,4.0,7.0,68,0.00,,,0.00,weatherlink.com 1.10,2013-03-15 15:15:00,
2013-03-15 10:30:00,65.9,54.0,30.24,South,175,1.0,9.0,65,0.00,,,0.00,weatherlink.com 1.10,2013-03-15 15:30:00,
2013-03-15 10:45:00,67.5,54.0,30.24,South,175,6.0,8.0,62,0.00,,,0.00,weatherlink.com 1.10,2013-03-15 15:45:00,
2013-03-15 11:00:00,68.8,54.0,30.23,SSW,197,5.0,7.0,60,0.00,,,0.00,weatherlink.com 1.10,2013-03-15 16:00:00,
2013-03-15 11:15:00,70.1,52.0,30.23,SSW,194,3.0,8.0,53,0.00,,,0.00,weatherlink.com 1.10,2013-03-15 16:15:00,
2013-03-15 11:30:00,72.0,49.0,30.23,South,182,2.0,7.0,45,0.00,,,0.00,weatherlink.com 1.10,2013-03-15 16:30:00,
2013-03-15 11:45:00,71.5,49.0,30.23,SSW,212,3.0,7.0,45,0.00,,,0.00,weatherlink.com 1.10,2013-03-15 16:45:00,
2013-03-15 12:00:00,74.4,49.0,30.22,South,183,5.0,11.0,41,0.00,,,0.00,weatherlink.com 1.10,2013-03-15 17:00:00,
2013-03-15 12:15:00,75.6,49.0,30.22,South,177,7.0,10.0,39,0.00,,,0.00,weatherlink.com 1.10,2013-03-15 17:15:00,
2013-03-15 12:30:00,76.5,49.0,30.21,South,191,7.0,10.0,38,0.00,,,0.00,weatherlink.com 1.10,2013-03-15 17:30:00,
2013-03-15 12:45:00,76.9,48.0,30.20,SE,144,9.0,10.0,36,0.00,,,0.00,weatherlink.com 1.10,2013-03-15 17:45:00,
2013-03-15 13:00:00,77.6,49.0,30.19,SSW,203,5.0,9.0,36,0.00,,,0.00,weatherlink.com 1.10,2013-03-15 18:00:00,
2013-03-15 13:15:00,77.8,50.0,30.18,South,174,4.0,11.0,38,0.00,,,0.00,weatherlink.com 1.10,2013-03-15 18:15:00,
2013-03-15 13:30:00,78.8,51.0,30.17,West,273,5.0,10.0,38,0.00,,,0.00,weatherlink.com 1.10,2013-03-15 18:30:00,
2013-03-15 14:01:00,79.4,52.0,30.14,SSE,157,3.0,10.0,38,0.00,,,0.00,weatherlink.com 1.10,2013-03-15 19:01:00,
2013-03-15 14:16:00,80.1,48.0,30.12,SSW,206,2.0,12.0,32,0.00,,,0.00,weatherlink.com 1.10,2013-03-15 19:16:00,
2013-03-15 15:16:00,81.5,47.0,30.09,SSW,199,7.0,12.0,30,0.00,,,0.00,weatherlink.com 1.10,2013-03-15 20:16:00,
2013-03-15 15:31:00,81.2,48.0,30.08,SW,221,4.0,9.0,31,0.00,,,0.00,weatherlink.com 1.10,2013-03-15 20:31:00,
2013-03-15 16:01:00,81.1,46.0,30.08,SSW,209,7.0,11.0,29,0.00,,,0.00,weatherlink.com 1.10,2013-03-15 21:01:00,
2013-03-15 16:31:00,80.8,48.0,30.06,South,173,6.0,12.0,32,0.00,,,0.00,weatherlink.com 1.10,2013-03-15 21:31:00,
2013-03-15 16:46:00,80.8,47.0,30.06,SW,215,2.0,10.0,31,0.00,,,0.00,weatherlink.com 1.10,2013-03-15 21:46:00,
2013-03-15 17:01:00,80.3,47.0,30.06,SSE,167,6.0,12.0,31,0.00,,,0.00,weatherlink.com 1.10,2013-03-15 22:01:00,
2013-03-15 17:16:00,79.6,48.0,30.05,SSE,150,6.0,10.0,33,0.00,,,0.00,weatherlink.com 1.10,2013-03-15 22:16:00,
2013-03-15 17:31:00,79.4,48.0,30.05,South,172,7.0,8.0,33,0.00,,,0.00,weatherlink.com 1.10,2013-03-15 22:31:00,
2013-03-15 17:46:00,78.4,47.0,30.05,South,171,5.0,9.0,33,0.00,,,0.00,weatherlink.com 1.10,2013-03-15 22:46:00,
2013-03-15 18:01:00,77.8,47.0,30.05,South,182,5.0,9.0,34,0.00,,,0.00,weatherlink.com 1.10,2013-03-15 23:01:00,
2013-03-15 18:31:00,76.1,49.0,30.05,SSE,163,3.0,6.0,38,0.00,,,0.00,weatherlink.com 1.10,2013-03-15 23:31:00,
2013-03-15 18:46:00,75.2,49.0,30.04,South,173,4.0,6.0,40,0.00,,,0.00,weatherlink.com 1.10,2013-03-15 23:46:00,
2013-03-15 19:01:00,74.4,50.0,30.04,SSE,153,2.0,4.0,42,0.00,,,0.00,weatherlink.com 1.10,2013-03-16 00:01:00,
2013-03-15 19:16:00,73.1,50.0,30.04,SSE,154,2.0,3.0,44,0.00,,,0.00,weatherlink.com 1.10,2013-03-16 00:16:00,
2013-03-15 19:31:00,71.8,50.0,30.04,SSE,149,1.0,3.0,47,0.00,,,0.00,weatherlink.com 1.10,2013-03-16 00:31:00,
2013-03-15 19:46:00,70.7,53.0,30.04,SSE,154,3.0,6.0,53,0.00,,,0.00,weatherlink.com 1.10,2013-03-16 00:46:00,
2013-03-15 20:01:00,69.9,55.0,30.04,South,170,5.0,6.0,59,0.00,,,0.00,weatherlink.com 1.10,2013-03-16 01:01:00,
2013-03-15 20:16:00,69.3,56.0,30.04,South,175,6.0,7.0,62,0.00,,,0.00,weatherlink.com 1.10,2013-03-16 01:16:00,
2013-03-15 20:31:00,68.9,56.0,30.04,SSE,165,4.0,10.0,64,0.00,,,0.00,weatherlink.com 1.10,2013-03-16 01:31:00,
2013-03-15 20:46:00,68.1,56.0,30.05,SSE,161,4.0,7.0,66,0.00,,,0.00,weatherlink.com 1.10,2013-03-16 01:46:00,
2013-03-15 21:01:00,67.4,56.0,30.05,South,170,7.0,9.0,66,0.00,,,0.00,weatherlink.com 1.10,2013-03-16 02:01:00,
2013-03-15 21:16:00,67.0,55.0,30.05,SSE,159,3.0,13.0,66,0.00,,,0.00,weatherlink.com 1.10,2013-03-16 02:16:00,
2013-03-15 21:31:00,66.1,54.0,30.05,SSE,161,5.0,9.0,66,0.00,,,0.00,weatherlink.com 1.10,2013-03-16 02:31:00,
2013-03-15 21:46:00,65.3,54.0,30.06,SSE,163,5.0,8.0,68,0.00,,,0.00,weatherlink.com 1.10,2013-03-16 02:46:00,
2013-03-15 22:01:00,64.5,55.0,30.06,South,171,6.0,8.0,70,0.00,,,0.00,weatherlink.com 1.10,2013-03-16 03:01:00,
2013-03-15 22:16:00,63.9,55.0,30.06,South,176,7.0,8.0,72,0.00,,,0.00,weatherlink.com 1.10,2013-03-16 03:16:00,
2013-03-15 22:31:00,63.3,55.0,30.06,SSE,163,5.0,10.0,74,0.00,,,0.00,weatherlink.com 1.10,2013-03-16 03:31:00,
2013-03-15 22:46:00,62.8,55.0,30.06,SSE,157,4.0,9.0,75,0.00,,,0.00,weatherlink.com 1.10,2013-03-16 03:46:00,
2013-03-15 23:01:00,62.2,55.0,30.06,SSE,167,5.0,9.0,78,0.00,,,0.00,weatherlink.com 1.10,2013-03-16 04:01:00,
2013-03-15 23:16:00,61.8,55.0,30.06,SSE,166,3.0,8.0,78,0.00,,,0.00,weatherlink.com 1.10,2013-03-16 04:16:00,
2013-03-15 23:31:00,61.2,55.0,30.05,SSE,164,3.0,9.0,80,0.00,,,0.00,weatherlink.com 1.10,2013-03-16 04:31:00,
2013-03-15 23:46:00,60.9,55.0,30.05,South,171,4.0,8.0,81,0.00,,,0.00,weatherlink.com 1.10,2013-03-16 04:46:00,